Weather Roundup
Issued by NWS Chicago, IL

Home | Current Version | Previous Version | Graphics & Text | Print | Product List | Glossary On
Versions: 1 2 3 4 5 6 7 8 9 10 11 12 13 14 15 16 17 18 19 20 21 22 23 24 25 26 27 28 29 30 31 32 33 34 35 36 37 38 39 40 41 42 43 44 45 46 47 48 49 50
000
NZUS59 KLOT 241609
HRRLOT

CHICAGO AREA WEATHER ROUNDUP
NATIONAL WEATHER SERVICE CHICAGO/ROMEOVILLE IL
1100 AM CDT WED MAY 24 2017

NOTE: "FAIR" INDICATES FEW OR NO CLOUDS BELOW 12,000 FEET WITH NO
SIGNIFICANT WEATHER AND/OR OBSTRUCTIONS TO VISIBILITY.

* THESE STATIONS ARE NOT UNDER NWS QUALITY CONTROL. THEY ALSO MAY NOT
  REPORT WEATHER SUCH AS PRECIPITATION OR FOG.

ILZ005-006-012>014-019>023-241700-
NORTHEAST ILLINOIS

CITY           SKY/WX    TMP DP  RH WIND       PRES   REMARKS
OHARE          CLOUDY    56  50  80 NE18      29.57F
MIDWAY         CLOUDY    57  53  86 NE14      29.56F
AURORA         CLOUDY    60  54  80 NE13      29.58S
LANSING*       CLOUDY    55  53  94 N9        29.56S
JOLIET*        CLOUDY    59  55  85 NE9       29.56F
WAUKEGAN       CLOUDY    54  51  90 N13G21    29.58R
DUPAGE AIRPORT CLOUDY    58  54  86 NE14      29.57S
WHEELING       CLOUDY    54  51  90 NE15G26   29.59S
KANKAKEE*      CLOUDY    59  55  89 CALM      29.55F FOG
MORRIS*        CLOUDY    59  54  83 CALM      29.55F
LEWIS AIRPORT* CLOUDY    57  55  93 NE18      29.56F
NORTHERLY ISL    N/A     53  50  89 N12         N/A
$$

WIZ051-052-058>065-066-070>072-241700-
SOUTHEAST WISCONSIN

CITY           SKY/WX    TMP DP  RH WIND       PRES   REMARKS
MILWAUKEE      FOG       52  51  97 N16       29.61F VSB 1/2
KENOSHA*       CLOUDY    54  51  90 NE14G20   29.60R
RACINE*        CLOUDY    50  49  96 N15G23    29.61F
WAUKESHA       CLOUDY    52  52 100 N8        29.63F
WEST BEND      CLOUDY    54  54 100 NE8       29.64F
$$

INZ001>003-010>013-019-020-241700-
NORTHWEST INDIANA

CITY           SKY/WX    TMP DP  RH WIND       PRES   REMARKS
GARY*          CLOUDY    55  52  88 N10       29.56F
MICHIGAN CITY* NOT AVBL
RENSSELAER*    NOT AVBL
VALPARAISO     PTSUNNY   65  56  72 VRB5      29.53S
$$

LMZ740>746-241700-
SOUTHERN LAKE MICHIGAN

STATION/POSITION TIME  SKY/WX   TEMP WIND        PRES    VSBY
                                AIR  DIR/SP/G
                 (UTC)          (F)  (DEG/KT/KT) (MB)    (MI)
HARRISON CRIB    1540            51   10/ 19/ 20   N/A
BURNHAM HARBOR   1600            53  360/ 15/ 16   N/A
CALUMET HARBOR   1548            52  340/ 11/ 15 1000.8F
BURNS HARBOR     1540            53   40/ 10/ 12 1001.4S
MICHIGAN CITY    1540            53   30/ 11/ 12   N/A
$$

ABBREVIATIONS USED IN REMARKS
   TC - TEMPERATURE IN CELSIUS
  WCI - WIND CHILL INDEX
   HX - HEAT INDEX
  VSB - VISIBILITY
$$



USA.gov is the U.S. government's official web portal to all federal, state and local government web resources and services.